Station RSJT2 - 8777812 - Rincon del San Jose, TX Image indicating link to RSS feed of recent meteorological observations for station RSJT2


Conditions at RSJT2 as of
(11:48 am CDT)
1648 GMT on 05/22/2024:
     

Click on the graph icon in the table below to see a time series plot of the last five days of that observation.

5-day plot - Wind Direction Wind Direction (WDIR):SSE ( 150 deg true )
5-day plot - Wind Speed Wind Speed (WSPD): 20.0 kts
5-day plot - Wind Gust Wind Gust (GST): 22.9 kts
5-day plot - Water Temperature Water Temperature (WTMP): 86.2 °F
5-day plot - Wind Speed at 10 Meters Wind Speed at 10 meters (WSPD10M): 19.4 kts
5-day plot - Wind Speed at 20 Meters Wind Speed at 20 meters (WSPD20M): 21.4 kts
5-day plot -  Wind Speed, Wind Gust and Atmospheric Pressure Combined plot of Wind Speed, Gust, and Air Pressure
Previous observations
TIME
(CDT)
5-day plot - Wind Direction
WDIR
 
5-day plot - Wind Speed
WSPD
kts
5-day plot - Wind Gust
GST
kts
5-day plot - Wave Height
WVHT
ft
5-day plot - Dominant Wave Period
DPD
sec
5-day plot - Average Wave Period
APD
sec
5-day plot - Mean Wave Direction
MWD
 
5-day plot - Atmospheric Pressure
PRES
in
5-day plot - Pressure Tendency
PTDY
in
5-day plot - Air Temperature
ATMP
°F
5-day plot - Water Temperature
WTMP
°F
5-day plot - Dew Point
DEWP
°F
5-day plot - Salinity
SAL
psu
5-day plot - Visibility
VIS
nmi
5-day plot - Tide (above MLLW)
TIDE
ft
2024-05-22 11:42 amSSE 18.1 22.0------- 86.2----
2024-05-22 11:36 amSSE 17.1 22.0------- 86.0----
2024-05-22 11:30 amSSE 19.0 22.0------------
2024-05-22 11:24 amSSE 19.0 22.0------------
2024-05-22 11:18 amSSE 19.0 22.9------ 84.6 86.0----
2024-05-22 11:12 amSSE 19.0 22.0------ 84.6 86.0----
2024-05-22 11:06 amSSE 18.1 22.0------ 84.6 86.0----
2024-05-22 11:00 amSSE 18.1 21.0----29.77+0.00 84.6 86.0----
2024-05-22 10:54 amSSE 19.0 22.0----29.77- 84.4 85.8----
2024-05-22 10:48 amSSE 19.0 22.0----29.76- 84.2 85.8----
2024-05-22 10:42 amSSE 19.0 22.0----29.77- 84.2 85.8----
2024-05-22 10:36 amSSE 20.0 24.1----29.76- 84.0 85.8----
2024-05-22 10:30 amSSE 15.9 22.0----29.76- 84.0 85.8----
2024-05-22 10:24 amSSE 18.1 20.0----29.76- 83.8 85.8----
2024-05-22 10:18 am SE 20.0 22.9----29.76- 83.8 85.8----
2024-05-22 10:12 am SE 18.1 22.9----29.76- 83.7 85.8----
2024-05-22 10:06 am SE 19.0 21.0----29.76- 83.7 85.6----
2024-05-22 10:00 am SE 17.1 19.0----29.77+0.03 83.8 85.6----
2024-05-22 09:54 am SE 18.1 20.0----29.77- 83.7 85.6----
2024-05-22 09:48 am SE 15.9 19.0----29.77-- 85.6----
2024-05-22 09:42 am SE 18.1 20.0----29.76-- 85.6----
2024-05-22 09:36 am SE 17.1 21.0----29.76-- 85.6----
2024-05-22 09:30 am SE 17.1 19.0------------
2024-05-22 09:24 am SE 17.1 19.0------------
2024-05-22 09:18 amSSE 15.9 20.0------------
2024-05-22 09:12 amSSE 17.1 19.0------------
2024-05-22 09:06 am SE 18.1 21.0------------
2024-05-22 09:00 amSSE 18.1 20.0----29.76+0.05 82.9 85.8----
2024-05-22 08:54 amSSE 17.1 19.0----29.77- 82.8 85.8----
2024-05-22 08:48 amSSE 15.9 19.0----29.77-- 85.8----
2024-05-22 08:42 am SE 15.0 18.1----29.77-- 85.8----
2024-05-22 08:36 amSSE 15.0 17.1----29.77-- 85.8----
2024-05-22 08:30 amSSE 15.0 19.0------------
2024-05-22 08:24 amSSE 15.9 18.1------------
2024-05-22 08:18 am SE 12.0 17.1----29.77-- 85.8----
2024-05-22 08:12 am SE 12.0 18.1----29.77-- 85.8----
2024-05-22 08:06 amSSE 14.0 15.9----29.77-- 85.8----
2024-05-22 08:00 amSSE 13.0 15.9----29.77+0.05 82.6 86.0----
2024-05-22 07:54 amSSE 13.0 15.0----29.77- 82.4 86.0----
2024-05-22 07:48 amSSE 15.0 18.1----29.77- 82.4 86.0----
2024-05-22 07:42 amSSE 15.9 19.0----29.75- 82.2 86.0----
2024-05-22 07:36 am SE 15.9 19.0----29.75- 82.0 86.0----
2024-05-22 07:30 am SE 15.9 21.0----29.75- 82.2 86.0----
2024-05-22 07:24 amSSE 18.1 21.0----29.74- 82.2 86.2----
2024-05-22 07:18 am SE 15.0 18.1----29.75- 82.4 86.2----
2024-05-22 07:12 amSSE 14.0 17.1----29.75- 82.4 86.2----
2024-05-22 07:06 amSSE 14.0 17.1----29.75- 82.6 86.2----
2024-05-22 07:00 amSSE 18.1 21.0----29.74+0.02 82.6 86.2----
2024-05-22 06:54 amSSE 15.9 20.0----29.74- 82.8 86.2----
2024-05-22 06:48 amSSE 17.1 21.0----29.74- 82.6 86.2----
2024-05-22 06:42 amSSE 20.0 22.0----29.74- 82.6 86.4----
2024-05-22 06:36 amSSE 18.1 21.0----29.73- 82.6 86.4----
2024-05-22 06:30 amSSE 18.1 22.0----29.73- 82.4 86.4----
2024-05-22 06:24 amSSE 18.1 22.0----29.72- 82.6 86.4----
2024-05-22 06:18 amSSE 18.1 21.0----29.72- 82.4 86.5----
2024-05-22 06:12 amSSE 19.0 22.0----29.72- 82.4 86.5----
2024-05-22 06:06 amSSE 20.0 22.0----29.71- 82.4 86.5----
2024-05-22 06:00 amSSE 20.0 22.9----29.71-0.04 82.4 86.5----
2024-05-22 05:54 amSSE 20.0 22.9----29.72- 82.4 86.7----
2024-05-22 05:48 amSSE 19.0 22.0----29.72- 82.6 86.7----
2024-05-22 05:42 amSSE 18.1 20.0----29.72- 82.4 86.7----
2024-05-22 05:36 amSSE 18.1 19.0----29.72- 82.4 86.7----
2024-05-22 05:30 amSSE 17.1 22.0----29.72- 82.4 86.7----
2024-05-22 05:24 amSSE 17.1 21.0----29.72- 82.6 86.7----
2024-05-22 05:18 amSSE 19.0 22.0----29.72- 82.4 86.9----
2024-05-22 05:12 amSSE 17.1 21.0----29.72- 82.4 86.9----
2024-05-22 05:06 amSSE 17.1 21.0----29.72- 82.2 86.9----
2024-05-22 05:00 amSSE 18.1 20.0----29.72-0.05 82.4 86.9----
2024-05-22 04:54 am SE 18.1 21.0----29.72- 82.4 86.9----
2024-05-22 04:48 amSSE 15.9 20.0----29.72- 82.6 87.1----
2024-05-22 04:42 amSSE 19.0 20.0----29.72- 82.4 87.1----
2024-05-22 04:36 am SE 17.1 21.0----29.72- 82.6 87.1----
2024-05-22 04:30 am SE 18.1 20.0----29.72- 82.4 87.1----
2024-05-22 04:24 am SE 15.9 21.0----29.72- 82.6 87.1----
2024-05-22 04:18 am SE 19.0 22.0----29.72- 82.9 87.1----
2024-05-22 04:12 amSSE 18.1 22.0----29.72- 82.9 87.3----
2024-05-22 04:06 amSSE 19.0 21.0----29.72- 82.8 87.3----
2024-05-22 04:00 am SE 19.0 21.0----29.72-0.04 82.8 87.3----
2024-05-22 03:54 amSSE 18.1 20.0----29.73- 82.8 87.3----
2024-05-22 03:48 amSSE 17.1 20.0----29.73- 82.9 87.3----
2024-05-22 03:42 amSSE 18.1 21.0----29.73- 82.9 87.4----
2024-05-22 03:36 amSSE 17.1 20.0----29.74- 82.9 87.4----
2024-05-22 03:30 amSSE 17.1 19.0----29.75- 83.1 87.4----
2024-05-22 03:24 amSSE 15.9 19.0----29.75- 82.9 87.4----
2024-05-22 03:18 amSSE 17.1 20.0----29.75- 82.9 87.4----
2024-05-22 03:12 amSSE 17.1 19.0----29.75- 82.9 87.6----
2024-05-22 03:06 amSSE 15.9 20.0----29.75- 82.9 87.6----
2024-05-22 03:00 amSSE 15.9 20.0----29.75+0.00 82.9 87.6----
2024-05-22 02:54 amSSE 17.1 20.0----29.75- 82.9 87.6----
2024-05-22 02:48 amSSE 17.1 20.0----29.76- 82.9 87.6----
2024-05-22 02:42 amSSE 17.1 19.0----29.76- 82.9 87.6----
2024-05-22 02:36 amSSE 15.9 20.0----29.76- 83.1 87.8----
2024-05-22 02:30 amSSE 17.1 20.0----29.76- 83.1 87.8----
2024-05-22 02:24 amSSE 17.1 20.0----29.76- 83.1 87.8----
2024-05-22 02:18 amSSE 17.1 19.0----29.76- 83.1 87.8----
2024-05-22 02:12 amSSE 15.9 20.0----29.76- 83.1 87.8----
2024-05-22 02:06 amSSE 17.1 20.0----29.76- 83.3 87.8----
2024-05-22 02:00 amSSE 15.9 19.0----29.77+0.02 83.3 88.0----
2024-05-22 01:54 amSSE 15.0 19.0----29.77- 83.3 88.0----
2024-05-22 01:48 amSSE 17.1 20.0----29.77- 83.3 88.0----
2024-05-22 01:42 amSSE 17.1 20.0----29.77- 83.3 88.0----
2024-05-22 01:36 amSSE 18.1 21.0----29.77- 83.3 88.0----
2024-05-22 01:30 amSSE 15.9 20.0----29.78- 83.7 88.0----
2024-05-22 01:24 amSSE 18.1 21.0----29.78- 83.5 88.0----
2024-05-22 01:18 amSSE 18.1 22.0----29.78- 83.7 88.0----
2024-05-22 01:12 amSSE 18.1 22.0----29.78- 83.7 88.2----
2024-05-22 01:06 amSSE 19.0 22.0----29.77- 83.8 88.2----
2024-05-22 01:00 amSSE 19.0 22.0----29.77+0.04 83.7 88.2----
2024-05-22 12:54 amSSE 20.0 24.1----29.77- 83.5 88.2----
2024-05-22 12:48 amSSE 18.1 22.9----29.77- 83.5 88.2----
2024-05-22 12:42 amSSE 21.0 24.1----29.77- 83.3 88.3----
2024-05-22 12:36 amSSE 19.0 24.1----29.76- 83.7 88.3----
2024-05-22 12:30 amSSE 22.0 24.1----29.76- 83.5 88.3----
2024-05-22 12:24 amSSE 19.0 25.1----29.76- 83.7 88.3----
2024-05-22 12:18 amSSE 21.0 24.1----29.75- 83.5 88.3----
2024-05-22 12:12 amSSE 19.0 25.1----29.75- 83.8 88.5----
2024-05-22 12:06 amSSE 22.9 25.1----29.75- 83.7 88.5----
2024-05-22 12:00 amSSE 21.0 25.1----29.75+0.04 83.5 88.5----
2024-05-21 11:54 pmSSE 21.0 25.1----29.76- 83.7 88.5----
2024-05-21 11:48 pmSSE 22.0 24.1----29.76- 83.7 88.7----
2024-05-21 11:42 pmSSE 22.0 25.1----29.76- 83.8 88.7----
2024-05-21 11:36 pmSSE 20.0 22.9----29.76- 83.8 88.7----
2024-05-21 11:30 pmSSE 18.1 22.9----29.76- 84.0 88.9----
2024-05-21 11:24 pmSSE 19.0 24.1----29.75- 84.0 88.9----
2024-05-21 11:18 pmSSE 21.0 24.1----29.75- 83.8 88.9----
2024-05-21 11:12 pmSSE 21.0 25.1----29.75- 83.7 88.9----
2024-05-21 11:06 pmSSE 22.0 26.0----29.75- 83.7 89.1----
2024-05-21 11:00 pmSSE 20.0 24.1----29.75+0.04 84.0 89.1----
2024-05-21 10:54 pmSSE 22.0 25.1----29.74- 83.5 89.1----
2024-05-21 10:48 pmSSE 20.0 22.9----29.74- 83.5 89.2----
2024-05-21 10:42 pmSSE 21.0 24.1----29.74- 83.5 89.2----
2024-05-21 10:36 pmSSE 19.0 22.9----29.74- 83.5 89.2----
2024-05-21 10:30 pmSSE 21.0 24.1----29.74- 83.3 89.2----
2024-05-21 10:24 pm SE 18.1 21.0----29.73- 83.5 89.4----
2024-05-21 10:18 pm SE 18.1 22.0----29.73- 83.5 89.4----
2024-05-21 10:12 pm SE 19.0 22.0----29.74- 83.5 89.4----
2024-05-21 10:06 pm SE 19.0 22.0----29.73- 83.3 89.4----
2024-05-21 10:00 pmSSE 18.1 21.0----29.73+0.04 83.7 89.6----
2024-05-21 09:54 pm SE 17.1 20.0----29.73- 83.5 89.6----
2024-05-21 09:48 pm SE 18.1 21.0----29.73- 83.7 89.6----
2024-05-21 09:42 pm SE 19.0 21.0----29.73- 83.5 89.6----
2024-05-21 09:36 pm SE 17.1 20.0----29.73- 83.8 89.6----
2024-05-21 09:30 pm SE 18.1 21.0----29.73- 83.5 89.8----
2024-05-21 09:24 pm SE 19.0 21.0----29.72- 83.8 89.8----
2024-05-21 09:18 pm SE 19.0 22.0----29.72- 83.7 89.8----
2024-05-21 09:12 pm SE 19.0 22.0----29.72- 83.8 89.8----
2024-05-21 09:06 pm SE 18.1 22.0----29.72- 83.8 89.8----
2024-05-21 09:00 pmSSE 18.1 22.9----29.72+0.02 83.8 89.8----
2024-05-21 08:54 pmSSE 19.0 22.0----29.72- 83.8 90.0----
2024-05-21 08:48 pm SE 19.0 22.9----29.72- 83.8 90.0----
2024-05-21 08:42 pm SE 19.0 22.9----29.72- 83.7 90.0----
2024-05-21 08:36 pm SE 18.1 22.0----29.72- 84.0 90.0----
2024-05-21 08:30 pm SE 18.1 22.9----29.71- 83.8 90.0----
2024-05-21 08:24 pm SE 20.0 22.9----29.71- 83.8 90.1----
2024-05-21 08:18 pmSSE 19.0 22.0----29.71- 84.0 90.1----
2024-05-21 08:12 pm SE 20.0 22.0----29.71- 83.8 90.1----
2024-05-21 08:06 pm SE 20.0 25.1----29.71- 84.0 90.1----
2024-05-21 08:00 pm SE 20.0 22.9----29.71+0.01 84.0 90.1----
2024-05-21 07:54 pm SE 19.0 22.9----29.71- 84.2 90.3----
2024-05-21 07:48 pm SE 19.0 22.9----29.70- 84.0 90.3----
2024-05-21 07:42 pm SE 20.0 22.0----29.71- 84.0 90.3----
2024-05-21 07:36 pm SE 18.1 22.9----29.70- 84.4 90.3----
2024-05-21 07:30 pm SE 19.0 24.1----29.70- 84.2 90.3----
2024-05-21 07:24 pm SE 20.0 22.9----29.70- 84.2 90.3----
2024-05-21 07:18 pm SE 19.0 24.1----29.70- 84.2 90.5----
2024-05-21 07:12 pm SE 20.0 24.1----29.70- 84.4 90.5----
2024-05-21 07:06 pm SE 20.0 22.9----29.70- 84.6 90.5----
2024-05-21 07:00 pm SE 20.0 25.1----29.69-0.01 84.7 90.5----
2024-05-21 06:54 pm SE 21.0 25.1----29.70- 84.4 90.5----
2024-05-21 06:48 pm SE 21.0 25.1----29.69- 84.7 90.5----
2024-05-21 06:42 pm SE 22.0 25.1----29.70- 84.7 90.5----
2024-05-21 06:36 pm SE 20.0 25.1----29.69- 84.7 90.5----
2024-05-21 06:30 pm SE 21.0 27.0----29.69- 84.9 90.7----
2024-05-21 06:24 pm SE 22.0 25.1----29.70- 84.9 90.7----
2024-05-21 06:18 pm SE 21.0 27.0----29.69- 85.1 90.7----
2024-05-21 06:12 pm SE 24.1 28.0----29.70- 84.9 90.7----
2024-05-21 06:06 pm SE 22.9 26.0----29.69- 85.3 90.7----
2024-05-21 06:00 pm SE 22.9 26.0----29.70-0.02 85.3 90.7----
2024-05-21 05:54 pm SE 22.9 27.0----29.69- 85.3 90.7----
2024-05-21 05:48 pm SE 22.9 26.0----29.69- 85.3 90.7----
2024-05-21 05:42 pm SE 22.9 27.0----29.70- 85.1 90.7----
2024-05-21 05:36 pm SE 22.9 26.0----29.70- 85.5 90.7----
2024-05-21 05:30 pm SE 22.9 27.0----29.70- 85.5 90.7----
2024-05-21 05:24 pm SE 22.0 25.1----29.69- 85.6 90.7----
2024-05-21 05:18 pm SE 22.9 27.0----29.69- 85.6 90.7----
2024-05-21 05:12 pm SE 21.0 26.0----29.69- 86.0 90.7----
2024-05-21 05:06 pm SE 22.0 25.1----29.70- 85.6 90.7----
2024-05-21 05:00 pm SE 22.0 26.0----29.69-0.04 85.6 90.5----
2024-05-21 04:54 pm SE 22.9 25.1----29.70- 85.8 90.5----
2024-05-21 04:48 pm SE 22.9 27.0----29.70- 86.0 90.5----
2024-05-21 04:42 pm SE 22.9 26.0----29.70- 85.8 90.5----
2024-05-21 04:36 pm SE 22.0 26.0----29.69- 86.0 90.5----
2024-05-21 04:30 pm SE 22.0 25.1----29.70-- 90.3----
2024-05-21 04:24 pm SE 22.0 27.0----29.70-- 90.3----
2024-05-21 04:18 pm SE 22.0 26.0----29.69-- 90.3----
2024-05-21 04:12 pm SE 21.0 27.0----29.70-- 90.3----
2024-05-21 04:06 pm SE 22.9 26.0----29.70-- 90.1----
2024-05-21 04:00 pm SE 22.9 27.0----29.70-0.04 86.0 90.1----
2024-05-21 03:54 pm SE 22.0 26.0----29.70- 86.4 90.1----
2024-05-21 03:48 pm SE 22.0 26.0----29.70-- 90.1----
2024-05-21 03:42 pm SE 21.0 28.0----29.71-- 90.0----
2024-05-21 03:36 pm SE 22.0 25.1----29.71-- 90.0----
2024-05-21 03:30 pm SE 19.0 25.1----29.71-------
2024-05-21 03:24 pm SE 20.0 26.0----29.71-------
2024-05-21 03:18 pm SE 21.0 26.0----29.72-- 89.6----
2024-05-21 03:12 pm SE 22.0 26.0----29.72-- 89.6----
2024-05-21 03:06 pm SE 21.0 24.1----29.72-- 89.4----
2024-05-21 03:00 pm SE 20.0 24.1----29.72-0.03 86.9 89.4----
2024-05-21 02:54 pm SE 21.0 25.1----29.72- 87.1 89.4----
2024-05-21 02:48 pm SE 19.0 24.1----29.72-- 89.2----
2024-05-21 02:42 pm SE 19.0 24.1----29.72-- 89.2----
2024-05-21 02:36 pm SE 21.0 24.1----29.72-- 89.2----
2024-05-21 02:30 pm SE 19.0 27.0------- 89.1----
2024-05-21 02:24 pm SE 19.0 26.0------- 89.1----
2024-05-21 02:18 pm SE 20.0 25.1----29.72- 86.9 89.1----
2024-05-21 02:12 pm SE 19.0 22.9----29.72- 87.3 88.9----
2024-05-21 02:06 pmSSE 19.0 22.9----29.72- 86.9 88.9----
2024-05-21 02:00 pm SE 20.0 24.1----29.73-0.01 86.9 88.9----
2024-05-21 01:54 pm SE 19.0 24.1----29.73- 86.9 88.7----
2024-05-21 01:48 pmSSE 19.0 22.0----29.73- 86.7 88.7----
2024-05-21 01:42 pmSSE 19.0 22.0----29.73- 86.5 88.5----
2024-05-21 01:36 pmSSE 21.0 22.0----29.73- 86.5 88.5----
2024-05-21 01:30 pm SE 19.0 24.1----29.74- 86.7 88.3----
2024-05-21 01:24 pmSSE 20.0 22.0----29.74- 86.5 88.3----
2024-05-21 01:18 pmSSE 19.0 21.0----29.74- 86.7 88.2----
2024-05-21 01:12 pm SE 17.1 21.0----29.75- 87.1 88.2----
2024-05-21 01:06 pmSSE 15.9 20.0----29.75- 86.9 88.0----
2024-05-21 01:00 pmSSE 18.1 21.0----29.75+0.01 87.1 88.0----
2024-05-21 12:54 pmSSE 17.1 19.0----29.75- 86.7 88.0----
2024-05-21 12:48 pmSSE 19.0 21.0----29.75- 86.5 87.8----
2024-05-21 12:42 pmSSE 17.1 19.0----29.75- 86.2 87.8----
2024-05-21 12:36 pmSSE 15.9 19.0----29.75- 86.2 87.8----
2024-05-21 12:30 pmSSE 17.1 19.0----29.75- 86.0 87.6----
2024-05-21 12:24 pmSSE 14.0 19.0----29.75- 85.8 87.6----
2024-05-21 12:18 pmSSE 15.9 19.0----29.75- 86.0 87.6----
2024-05-21 12:12 pmSSE 17.1 19.0----29.75- 85.8 87.4----
2024-05-21 12:06 pmSSE 15.0 19.0----29.75- 86.0 87.4----
2024-05-21 12:00 pmSSE 15.0 17.1----29.75+0.02 85.8 87.4----
2024-05-21 11:54 amSSE 15.9 19.0----29.76- 85.8 87.4----